Flag for Norway Weather past 2 weeks in Lillestrøm, Norway

Now
50 °F

Cool.


Feels Like: 49 °F
Forecast: 49 / 55 °F
Wind: 5 mph from South

Location: Oslo-Blindern

Current Time: Oct 23, 2014 at 11:48:59 PM

Latest Report: Oct 23, 2014 at 10:00 PM


Visibility: N/A

Pressure: 29.93 "Hg

Humidity: 97%

Dew point: 49 °F

Location of LillestrømLocation

Historic Weather in Lillestrøm — Graph

°F

Lillestrøm temperature yesterday

Maximum temperature yesterday: 47 °F (at 4:00 AM)
Minimum temperature yesterday: 38 °F (at 11:00 PM)
Average temperature yesterday: 43 °F

Past Weeks' High & Low Weather Summary

 TemperatureHumidityPressure
High59 °F (Oct 20, 2:00 PM)100% (Oct 14, 8:00 AM)30.13 "Hg (Oct 14, 8:00 AM)
Low35 °F (Oct 14, 5:00 AM)66% (Oct 20, 3:00 PM)29.29 "Hg (Oct 20, 1:00 AM)
Average46 °F91%29.79 "Hg
* Reported Midnight between Oct 8 and Oct 9 — Oct 23 10:00 PM, Lillestrøm, Weather by CustomWeather, © 2014

Note: Actual official high and low records may vary slightly from our data, if they occured in-between our weather recording intervals... More about our weather records

Advertising

Lillestrøm weather history for previous 24 hours

 ConditionsComfort  
Time TempWeatherWind HumidityBarometerVisibility
10:00 PM
Oct 23
50 °FCool.5 mph97%29.93 "HgN/A
9:00 PM50 °FCool.5 mph97%29.93 "HgN/A
8:00 PM49 °FRain. Low clouds.3 mph97%29.93 "Hg6 mi
7:00 PM48 °FCool.5 mph97%29.94 "HgN/A
6:00 PM48 °FCool.3 mph97%29.95 "HgN/A
5:00 PM47 °FLight rain. Low clouds.5 mph95%29.97 "Hg6 mi
4:00 PM47 °FCool.5 mph93%29.98 "HgN/A
3:00 PM46 °FCool.2 mph96%29.99 "HgN/A
2:00 PM45 °FLight rain. Low clouds.2 mph96%30.00 "Hg2 mi
1:00 PM45 °FQuite cool.3 mph95%30.01 "HgN/A
12:00 PM43 °FQuite cool.2 mph96%30.01 "HgN/A
11:00 AM42 °FRain. Low clouds.2 mph95%30.02 "Hg2 mi
10:00 AM41 °FQuite cool.2 mph94%30.03 "HgN/A
9:00 AM40 °FQuite cool.2 mph94%30.03 "HgN/A
8:00 AM40 °FLight rain. Low clouds.2 mph95%30.04 "Hg9 mi
7:00 AM39 °FChilly.2 mph94%30.05 "HgN/A
6:00 AM39 °FChilly.2 mph95%30.06 "HgN/A
5:00 AM38 °FLight rain. Low clouds.2 mph93%30.07 "Hg4 mi
4:00 AM38 °FChilly.3 mph94%30.09 "HgN/A
3:00 AM38 °FChilly.3 mph92%30.10 "HgN/A
2:00 AM38 °FLight rain. Low clouds.2 mph92%30.11 "Hg4 mi
1:00 AM37 °FChilly.2 mph94%30.11 "HgN/A
12:00 AM37 °FChilly.2 mph93%30.11 "HgN/A
11:00 PM
Oct 22
38 °FRain. Low clouds.2 mph92%30.10 "Hg4 mi
Weather by CustomWeather, © 2014

See weather overviewHow to use our weather pages